This is the latest recevied weather packets stored in our database for station/object OK3MS-5. If no packets are shown the sender has not sent any weather packets the latest 10 day(s).
| Time | Temp. | Humidity | Pressure | Rain* | Wind** | Luminosity | Snow |
|---|---|---|---|---|---|---|---|
| 1777720502 | 21.67° C | 32% | 1020.4 hPa | 0 mm | - | 750 W/m² | - |
| 1777720208 | 21.11° C | 31% | 1020.5 hPa | 0 mm | - | 752 W/m² | - |
| 1777719905 | 21.11° C | 31% | 1020.6 hPa | 0 mm | - | 751 W/m² | - |
| 1777719604 | 20.56° C | 33% | 1020.7 hPa | 0 mm | - | 747 W/m² | - |
| 1777719304 | 20.56° C | 32% | 1020.8 hPa | 0 mm | - | 748 W/m² | - |
| 1777719004 | 20.56° C | 32% | 1020.8 hPa | 0 mm | - | 749 W/m² | - |
| 1777718706 | 21.67° C | 32% | 1020.6 hPa | 0 mm | - | 750 W/m² | - |
| 1777718404 | 21.67° C | 33% | 1020.7 hPa | 0 mm | - | 749 W/m² | - |
| 1777718104 | 21.67° C | 32% | 1020.7 hPa | 0 mm | - | 747 W/m² | - |
| 1777717804 | 21.11° C | 33% | 1021.1 hPa | 0 mm | - | 742 W/m² | - |
| 1777717504 | 21.11° C | 33% | 1021.2 hPa | 0 mm | - | 736 W/m² | - |
| 1777717202 | 21.11° C | 33% | 1021.2 hPa | 0 mm | - | 731 W/m² | - |
| 1777716903 | 20.56° C | 34% | 1021.3 hPa | 0 mm | - | 731 W/m² | - |
| 1777716604 | 20.56° C | 34% | 1021.4 hPa | 0 mm | - | 724 W/m² | - |
| 1777716303 | 20.56° C | 35% | 1021.4 hPa | 0 mm | - | 719 W/m² | - |
| 1777716003 | 20.56° C | 35% | 1021.5 hPa | 0 mm | - | 717 W/m² | - |
| 1777715703 | 20.56° C | 35% | 1021.5 hPa | 0 mm | - | 714 W/m² | - |
| 1777715402 | 20° C | 37% | 1021.6 hPa | 0 mm | - | 702 W/m² | - |
| 1777715102 | 20° C | 35% | 1021.7 hPa | 0 mm | - | 703 W/m² | - |
| 1777714802 | 20.56° C | 38% | 1021.6 hPa | 0 mm | - | 703 W/m² | - |
| 1777714502 | 20° C | 39% | 1021.8 hPa | 0 mm | - | 692 W/m² | - |
| 1777714202 | 19.44° C | 37% | 1022 hPa | 0 mm | - | 684 W/m² | - |
| 1777713909 | 19.44° C | 39% | 1022.1 hPa | 0 mm | - | 679 W/m² | - |
| 1777713602 | 20° C | 38% | 1022.2 hPa | 0 mm | - | 672 W/m² | - |
| 1777713303 | 19.44° C | 39% | 1022.2 hPa | 0 mm | - | 663 W/m² | - |
* Rain latest hour (hover to see other rain measurements)
** Current wind speed in m/s (hover to see current wind gust speed)